Location: Asheville, NC
(35.6000°N, 82.5500°W)
Time: 04:34:11

N. Korean satellite - Pass Details

Date: 12 January 2018
Orbit: 460 x 512 km, 97.2° (Epoch: 20 March)

Event Time Altitude Azimuth Distance (km) Brightness Sun altitude
Rises 18:55:15 0° 185° (S) 2,592 10.5 -15.5°
Reaches altitude 10° 18:57:27 10° 193° (SSW) 1,706 9.7 -16.0°
Maximum altitude 19:00:52 36° 262° (W) 796 8.3 -16.6°
Drops below altitude 10° 19:04:16 10° 330° (NNW) 1,692 9.5 -17.3°
Sets 19:06:26 0° 339° (NNW) 2,569 10.3 -17.7°
